Regional Weather Roundup
Issued by NWS Goodland, KS

Home | Current Version | Previous Version | Graphics & Text | Print | Product List | Glossary On
Versions: 1 2 3 4 5 6 7 8 9 10 11 12 13 14 15 16 17 18 19 20 21 22 23 24 25 26 27 28 29 30 31 32 33 34 35 36 37 38 39 40 41 42 43 44 45 46 47 48 49 50
000
ASUS43 KGLD 182159
RWRGLD

GOODLAND FORECAST AREA HOURLY WEATHER ROUNDUP
NATIONAL WEATHER SERVICE GOODLAND KS
400 PM MDT SAT APR 18 2015

...OFFICIAL OBSERVATIONS...

CITY           SKY/WX    TMP DP  RH WIND       PRES   REMARKS
GOODLAND KS    PTSUNNY   56  44  64 E5        29.77F
HILL CITY KS   MOSUNNY   70  49  47 NE6       29.72F
IMPERIAL NEB   PTSUNNY   62  44  51 SE12      29.77F
MCCOOK NEB     MOSUNNY   71  42  35 SE7       29.74F
AKRON CO       CLOUDY    49  39  68 N8        29.83F
BURLINGTON CO  PTSUNNY   52  39  61 W24       29.80S
LIMON CO       PTSUNNY   48  33  56 N7        29.83F
$$

...UNOFFICIAL OBSERVATIONS...

CITY           SKY/WX    TMP DP  RH WIND       PRES   REMARKS
COLBY KS       CLOUDY    66  46  48 SE13      29.75F
GOVE KS          N/A     72  32  23 MISG        N/A
LENORA KS        N/A     68  32  26 MISG        N/A
NORTON KS      MOSUNNY   70  43  37 E7        29.72F
SHARON SPRINGS   N/A     61  42  49 MISG        N/A
TRIBUNE KS     CLOUDY    63  43  48 SW16G22   29.82F
YUMA CO          N/A     48  41  76 W13G22      N/A
$$


USA.gov is the U.S. government's official web portal to all federal, state and local government web resources and services.